CW9703 Weather Reports


Display with metric or nautical units.
time (UTC)temp
F
wind
direction
speed
MPH
gust
MPH
rain 1hr
in
rain 24hr
in
rain mn
in
humidity
%
barometer
mb
20210513102621 32 53 0.0 0.0 0.00 0.01 0.00 84 1030.1
20210513100421 32 53 0.0 0.0 0.00 0.01 0.00 83 1029.8
20210513092031 34 54 0.0 0.0 0.00 0.01 0.00 81 1029.6
20210513084720 34 53 0.0 0.0 0.00 0.01 0.00 81 1029.6
20210513074119 35 53 0.0 0.0 0.00 0.01 0.00 80 1029.5
20210513071919 36 53 0.0 0.0 0.00 0.01 0.00 79 1029.5
20210513062418 37 53 2.0 3.0 0.00 0.01 0.00 79 1029.5
20210513060228 37 54 2.0 3.0 0.00 0.01 0.00 79 1029.5
20210513052917 38 53 2.0 3.0 0.00 0.01 0.00 78 1029.4
20210513042317 39 53 2.0 3.0 0.00 0.01 0.00 77 1029.4
20210513035016 40 53 2.0 3.0 0.00 0.01 0.01 74 1029.4
20210513032817 41 53 2.0 3.0 0.00 0.01 0.01 73 1029.5
20210513030615 42 77 2.0 3.0 0.00 0.01 0.01 74 1029.6
20210513024416 43 77 2.0 3.0 0.00 0.01 0.01 71 1029.5
20210513021115 45 99 3.0 3.0 0.00 0.01 0.01 68 1029.3
20210513014915 46 120 2.0 3.0 0.00 0.01 0.01 67 1029.2
20210513012714 49 121 0.0 0.0 0.00 0.01 0.01 65 1029.1
20210513010514 51 120 0.0 0.0 0.00 0.01 0.01 69 1029.2
20210513004324 53 121 0.0 0.0 0.00 0.01 0.01 47 1029.1
20210513003223 53 121 0.0 0.0 0.00 0.01 0.01 45 1029.0
20210513002114 53 121 1.0 2.0 0.00 0.01 0.01 48 1029.1
20210512233713 52 118 3.0 3.0 0.00 0.01 0.01 67 1029.2
20210512231522 53 140 4.0 4.0 0.00 0.01 0.01 69 1029.4
20210512230412 53 134 3.0 6.0 0.00 0.01 0.01 68 1029.4
20210512224212 54 149 3.0 4.0 0.00 0.01 0.01 70 1029.5
20210512222012 54 169 4.0 6.0 0.00 0.01 0.01 70 1029.6
20210512215812 54 142 4.0 7.0 0.00 0.01 0.01 69 1029.5
20210512213611 54 142 4.0 5.0 0.00 0.01 0.01 70 1029.6
20210512203010 54 175 3.0 5.0 0.01 0.01 0.01 70 1029.8
20210512200811 56 205 4.0 6.0 0.01 0.01 0.01 67 1029.9
20210512192410 54 199 6.0 7.0 0.00 0.00 0.00 75 1030.1
20210512190219 53 190 7.0 7.0 0.00 0.00 0.00 75 1030.2
20210512180709 53 179 5.0 10.0 0.00 0.03 0.00 76 1030.4
20210512174513 53 161 8.0 10.0 0.00 0.03 0.00 77 1030.5
20210512172318 52 189 5.0 9.0 0.00 0.03 0.00 76 1030.6
20210512170107 54 150 9.0 10.0 0.00 0.03 0.00 68 1030.7
20210512161708 57 156 7.0 10.0 0.00 0.04 0.00 64 1030.8
20210512155507 63 351 1.0 4.0 0.00 0.04 0.00 38 1030.8
20210512153306 63 268 2.0 7.0 0.00 0.04 0.00 38 1030.8
20210512151116 62 309 8.0 8.0 0.00 0.04 0.00 41 1031.0
20210512144906 61 342 3.0 5.0 0.00 0.04 0.00 41 1031.0
20210512135406 57 350 3.0 7.0 0.00 0.04 0.00 49 1031.1
20210512133215 55 341 2.0 5.0 0.00 0.04 0.00 51 1031.1
20210512124814 50 360 3.0 6.0 0.00 0.04 0.00 57 1030.9
20210512121504 45 138 3.0 7.0 0.00 0.04 0.00 62 1030.7
20210512115313 42 350 5.0 7.0 0.00 0.04 0.00 67 1030.4
20210512114203 41 351 3.0 4.0 0.00 0.04 0.00 68 1030.4
20210512112013 39 348 5.0 5.0 0.00 0.04 0.00 70 1030.2
20210512110904 38 347 3.0 7.0 0.00 0.04 0.00 71 1030.2
20210512104713 37 13 3.0 4.0 0.00 0.04 0.00 72 1029.8
20210512103612 37 348 2.0 4.0 0.00 0.04 0.00 72 1029.7